Terug naar catalogus

TIANQI 17

ActiefCommunicatieLEO
NORAD 64059·PAYLOAD·🇨🇳 China

Gelanceerd May 19, 2025 vanaf Yellow Sea Launch Area

Loading…

Volgende Passages (komende 24 uur)

TLE

VersSource: Space-Track

Epoch: Sep 14, 2026, 16:26 UTC

1 64059U 25105B   26257.68534177  .00000073  00000-0  13791-3 0  9994
2 64059  44.9819 343.4736 0008884  90.5937 269.5913 13.99180041 67736

Volg TIANQI 17 in realtime met AllMySat

Download on the App Store